Find Starlink 31136

NORAD ID: 58772 Int'l Des: 2024-011 Owner: SPXS Country: US Constellation: starlink operational
LEOCIRCULAR

Current View

Loading 3D Globe...

About Starlink 31136

Starlink 31136 (NORAD 58772) is a starlink constellation satellite (v2 mini) launched Jan 14, 2024 by SPXS of US. It operates in LEO, CIRCULAR orbit with a mass of 730.00 kg.

About Starlink 31136

Description loading...

Upcoming Passes

Passes for default location (London). Set your location on the main map for personalized predictions.

Altitude History

Loading altitude history...

Two-Line Element Set

1 58772U 24011H 26168.48716073 .00000916 00000-0 38241-4 0 9994
2 58772 53.1609 269.8470 0000972 57.7073 302.4024 15.34399583135541
Epoch: Jun 17, 2026 • Age: 18 hours

Current Status

Altitude 473.6 km
Velocity 7.63 km/s
Sub-Earth Point -32.85°S, 120.78°E
Launch Date Jan 14, 2024
Age 2.4 years
Type internet

Technical Details

Classification Payload
Mass 730.00 kg
Dry Mass 700.00 kg
Total Mass 730.00 kg
Length 0.30 m
Diameter 4.10 m
Span 29.00 m
Shape Box + pan
Manufacturer SPXS
Bus Type Starlink V2M
Phase Status In Orbit
Owner/State SPXS/US

Most Searched